Grand Rapids, MI

10:06 AM EST on November 17, 2019 (GMT -0500)
Gerald R. Ford International

Weather History for KGRR - July, 2019

Change the Weather History Date:

Saturday, July 13, 2019

  Actual Average Record
Temperature  
Mean Temperature 77 °F 73 °F  
Max Temperature 87 °F 83 °F 108 °F (1936)
Min Temperature 67 °F 62 °F 46 °F (1898)
Degree Days  
Heating Degree Days 0 0  
Month to date heating degree days 0 0  
Since 1 June heating degree days 49 45  
Since 1 July heating degree days 0 0  
Cooling Degree Days 12 8  
Month to date cooling degree days 145 101  
Year to date cooling degree days 262 293  
Since 1 June cooling degree days 256 246  
Growing Degree Days 26 (Base 50)    
Moisture  
Dew Point 63 °F    
Average Humidity 62    
Maximum Humidity 76    
Minimum Humidity 47    
Precipitation  
Precipitation 0.00 in 0.12 in 1.43 in (1981)
Month to date precipitation 1.96 1.55  
Year to date precipitation 24.89 18.90  
Snow  
Snow 0.00 in 0.00 in 0.00 in (2006)
Month to date snowfall 0.0 0.0  
Since 1 June snowfall 0.0 0.0  
Since 1 July snowfall 0.0 0.0  
Snow Depth 0.00 in    
Sea Level Pressure  
Sea Level Pressure 29.96 in    
Wind  
Wind Speed 10 mph (West)    
Max Wind Speed 20 mph    
Max Gust Speed 27 mph    
Visibility 10 miles    
Events      
T = Trace of Precipitation, MM = Missing Value Source: NWS Daily Summary

Daily Weather History Graph

Daily Weather History Graph

Search for Another Location

Airport or City:

Astronomy

Jul. 13, 2019 Rise Set
Actual Time 6:15 AM EDT 9:20 PM EDT
Civil Twilight 5:40 AM EDT 9:54 PM EDT
Nautical Twilight 4:57 AM EDT 10:37 PM EDT
Astronomical Twilight 4:04 AM EDT 11:29 PM EDT
Moon 6:41 PM EDT (7/13) 3:36 AM EDT (7/13)
Length of Visible Light 16h 13m
Length of Day
15h 04m
Waxing Gibbous, 90% of the Moon is Illuminated
Jul 13
Waxing Gibbous
Jul 16
Full
Jul 24
Last Quarter
Jul 31
New
Aug 7
First Quarter

Hourly Weather History & Observations

Time (EDT) Temp. Heat Index Dew Point Humidity Pressure Visibility Wind Dir Wind Speed Gust Speed Precip Events Conditions
12:53 AM 66.9 °F - 55.0 °F 66% 29.93 in 10.0 mi SW 6.9 mph - N/A   Clear
1:53 AM 68.0 °F - 55.0 °F 63% 29.93 in 10.0 mi SW 6.9 mph - N/A   Clear
2:53 AM 68.0 °F - 55.9 °F 65% 29.91 in 10.0 mi SW 6.9 mph - N/A   Clear
3:53 AM 66.9 °F - 57.9 °F 73% 29.91 in 10.0 mi SSW 5.8 mph - N/A   Clear
4:53 AM 66.9 °F - 57.9 °F 73% 29.90 in 10.0 mi SSW 6.9 mph - N/A   Clear
5:53 AM 68.0 °F - 60.1 °F 76% 29.91 in 10.0 mi SSW 5.8 mph - N/A   Partly Cloudy
6:53 AM 68.0 °F - 61.0 °F 78% 29.92 in 10.0 mi SW 5.8 mph - N/A   Scattered Clouds
7:53 AM 73.9 °F - 63.0 °F 68% 29.93 in 10.0 mi SW 8.1 mph - N/A   Scattered Clouds
8:53 AM 75.9 °F - 64.0 °F 67% 29.93 in 10.0 mi WSW 11.5 mph - N/A   Scattered Clouds
9:53 AM 79.0 °F - 66.0 °F 64% 29.94 in 10.0 mi WSW 11.5 mph 19.6 mph N/A   Scattered Clouds
10:53 AM 82.0 °F 84.5 °F 66.9 °F 60% 29.95 in 10.0 mi West 10.4 mph - N/A   Mostly Cloudy
11:53 AM 82.9 °F 85.8 °F 68.0 °F 60% 29.94 in 10.0 mi WSW 12.7 mph - N/A   Mostly Cloudy
12:53 PM 84.0 °F 87.8 °F 69.1 °F 61% 29.95 in 10.0 mi WSW 13.8 mph - N/A   Scattered Clouds
1:53 PM 86.0 °F 90.7 °F 70.0 °F 59% 29.96 in 10.0 mi SW 12.7 mph - N/A   Scattered Clouds
2:53 PM 87.1 °F 92.0 °F 70.0 °F 57% 29.97 in 10.0 mi West 16.1 mph 26.5 mph N/A   Scattered Clouds
3:53 PM 86.0 °F 90.7 °F 70.0 °F 59% 29.97 in 10.0 mi WNW 13.8 mph 23.0 mph N/A   Scattered Clouds
4:53 PM 87.1 °F 91.3 °F 69.1 °F 55% 29.97 in 10.0 mi West 12.7 mph 24.2 mph N/A   Scattered Clouds
5:53 PM 87.1 °F 89.9 °F 66.9 °F 51% 29.96 in 10.0 mi West 11.5 mph 21.9 mph N/A   Scattered Clouds
6:53 PM 84.9 °F 86.6 °F 64.9 °F 51% 29.96 in 10.0 mi WNW 12.7 mph - N/A   Partly Cloudy
7:53 PM 82.9 °F 83.3 °F 61.0 °F 47% 29.98 in 10.0 mi NW 11.5 mph - N/A   Scattered Clouds
8:53 PM 79.0 °F - 59.0 °F 50% 30.00 in 10.0 mi North 11.5 mph - N/A   Mostly Cloudy
9:53 PM 75.0 °F - 57.0 °F 53% 30.02 in 10.0 mi North 8.1 mph - N/A   Mostly Cloudy
10:53 PM 73.9 °F - 57.0 °F 55% 30.04 in 10.0 mi North 6.9 mph - N/A   Mostly Cloudy
11:53 PM 71.1 °F - 57.9 °F 63% 30.06 in 10.0 mi NNE 5.8 mph - N/A   Mostly Cloudy